Regional Weather Roundup
Issued by NWS Boston, MA

Current Version | Previous Version | Text Only | Print | Product List | Glossary On
Versions: 1 2 3 4 5 6 7 8 9 10 11 12 13 14 15 16 17 18 19 20 21 22 23 24 25 26 27 28
000
ASUS41 KBOX 291010
RWRBOX

REGIONAL WEATHER ROUNDUP
NATIONAL WEATHER SERVICE TAUNTON MA
600 AM EDT FRI JUL 29 2016

NOTE:  "FAIR" INDICATES FEW OR NO CLOUDS BELOW 12,000 FEET WITH NO
SIGNIFICANT WEATHER AND/OR OBSTRUCTIONS TO VISIBILITY.

MAZALL-291100-
EASTERN MASSACHUSETTS

CITY           SKY/WX    TMP DP  RH WIND       PRES   REMARKS
BOSTON         LGT RAIN  77  71  82 W8        29.85R
BEVERLY        LGT RAIN  71  69  93 NW5       29.85R
LAWRENCE       CLOUDY    72  69  90 N3        29.88R
BEDFORD        MOCLDY    72  66  81 NW3       29.85R
BLUE HILL        N/A     71  71 100 W8        29.87R
NORWOOD        LGT RAIN  75  72  90 VRB3      29.85S
MARSHFIELD     PTCLDY    75  75 100 SW5       29.85R
PLYMOUTH       PTCLDY    74  72  93 W5        29.86R
TAUNTON        LGT RAIN  73  72  96 CALM      29.84S FOG
NEW BEDFORD    CLOUDY    76  73  91 CALM      29.85R FOG
$$

MAZALL-291100-
CAPE COD AND THE ISLANDS

CITY           SKY/WX    TMP DP  RH WIND       PRES   REMARKS
FALMOUTH       CLOUDY    72  72 100 CALM      29.85F
HYANNIS        CLOUDY    76  74  93 SW6       29.83S
CHATHAM        FOG       72  72 100 S3        29.85F VSB 1/2
PROVINCETOWN   CLOUDY    74  73  97 S6        29.85F
NANTUCKET        N/A     70  70 100 CALM      29.85S FOG
MARTHAS VNYRD  CLOUDY    73  73 100 SW3       29.85S FOG
$$

MAZALL-291100-
CENTRAL AND WESTERN MASSACHUSETTS

CITY           SKY/WX    TMP DP  RH WIND       PRES   REMARKS
WORCESTER      LGT RAIN  69  65  86 W9        29.90S
FITCHBURG      HVY RAIN  73  70  90 N5        29.89R FOG
ORANGE         LGT RAIN  69  68  96 CALM      29.89S
SPRINGFIELD    LGT RAIN  70  70 100 CALM      29.86S
WESTFIELD      LGT RAIN  71  69  93 CALM      29.87S
NORTH ADAMS    CLOUDY    66  64  93 CALM      29.88S FOG
PITTSFIELD     LGT RAIN  66  65  96 CALM      29.88F FOG
$$

RIZALL-291100-
RHODE ISLAND

CITY           SKY/WX    TMP DP  RH WIND       PRES   REMARKS
PROVIDENCE     LGT RAIN  75  72  90 NW6       29.85S FOG
NEWPORT        FOG       74  74 100 CALM      29.85S VSB 1/4
BLOCK ISLAND   FOG       76  75  97 CALM      29.85F VSB 3/4
SMITHFIELD     CLOUDY    72  70  94 NW9       29.87S
WESTERLY       CLOUDY    75  72  90 S5        29.86R FOG
$$

CTZALL-291100-
CONNECTICUT

CITY           SKY/WX    TMP DP  RH WIND       PRES   REMARKS
BRADLEY INTL   LGT RAIN  72  69  90 CALM      29.87S
HARTFORD       LGT RAIN  76  72  87 S3        29.87R FOG
BRIDGEPORT     RAIN      74  70  87 N6        29.86R FOG
DANBURY        LGT RAIN  71  67  87 E7        29.87F
GROTON         CLOUDY    76  70  82 N10       29.85R
NEW HAVEN      LGT RAIN  72  70  93 N9        29.85F
CHESTER        LGT RAIN  72  70  94 N8        29.87F
MERIDEN        LGT RAIN  74  70  87 N5        29.87S FOG
WILLIMANTIC    LGT RAIN  74  73  97 N5        29.88R
OXFORD         LGT RAIN  70  64  83 NE6       29.90S FOG
$$

MEZ002-015-021-024-NHZ003-005-008-011-012-014-VTZ005-008-291100-
NORTHERN NEW ENGLAND

CITY           SKY/WX    TMP DP  RH WIND       PRES   REMARKS
PORTLAND ME    CLOUDY    69  65  86 N3        29.86S
BANGOR ME      FOG       70  67  90 NW3       29.89R VSB 1/2
CONCORD NH     RAIN      69  66  90 N7        29.87S FOG
MANCHESTER NH  LGT RAIN  73  66  78 NW3       29.87R
NASHUA NH      LGT RAIN  72  69  90 NW5       29.88R
PORTSMOUTH NH  CLOUDY    70  66  85 N3        29.85R
JAFFREY NH     LGT RAIN  69  66  90 CALM      29.91S FOG
KEENE NH       MOCLDY    68  67  96 S3        29.89S FOG
BURLINGTON VT  CLOUDY    68  64  87 CALM      29.91R
MT. WASHINGTON CLOUDY    52  50  93 W12         N/A
$$

NYZ052-076-291100-
EASTERN NEW YORK

CITY           SKY/WX    TMP DP  RH WIND       PRES   REMARKS
ALBANY         CLOUDY    69  67  93 N3        29.86F
NEW YORK CITY  LGT RAIN  71  69  93 NE12      29.83F FOG
$$

ANZALL-291100-
MARINE OBSERVATIONS

STATION/POSITION TIME  TEMP    WIND        PRES    VSBY  WAVE
                       AIR SEA DIR/SP/G                  HT/PER
                 (UTC) (F)     (DEG/KT/KT) (MB)    (MI)  (FT/S)
BOSTON BUOY      0950   71 71  180/  6/  6 1010.3F         1/ 8
BUZZARDS BAY     1000   73     260/  5/  5 1011.1R
NANTUCKET SOUND  0950   74 75  210/  4/  6 1010.2F         0
MASS BAY-STELLWA 0904   71 69  180/  6/  6 1010.0F  1 7/8  1/ 7
ISLE OF SHOALS   1000   69      30/ 11/ 12 1010.5R
S OF BLOCK IS    0925      74                N/A           1/ 6
$$

......................KEY.........................
  SKY/WX - SKY CONDITION/PRESENT WEATHER
  TMP    - TEMPERATURE IN FAHRENHEIT
  DWPT   - DEWPOINT IN FAHRENHEIT
  RH     - RELATIVE HUMIDITY IN PERCENT
  WIND   - DIRECTION AND SPEED IN MPH
  PRES   - MEAN SEA LEVEL PRESSURE IN INCHES OF HG
  WCI    - WIND CHILL INDEX
  VSB    - VISIBILITY IN MILES
  HX     - HEAT INDEX
  TC     - TEMPERATURE IN CELSIUS
  VRB    - VARIABLE WIND DIRECTION
  N/A    - NOT AVAILABLE




USA.gov is the U.S. government's official web portal to all federal, state and local government web resources and services.